| time (UTC) | temp F | wind direction | speed knots | gust knots | rain 1hr in | rain 24hr in | rain mn in | humidity % | barometer mb |
| 20260505223903 | 59 | 145 | 10.4 | 19.1 | 0.00 | 0.00 | 0.00 | 98 | 1007.2 |
| 20260505223402 | 59 | 152 | 9.6 | 19.1 | 0.00 | 0.00 | 0.00 | 98 | 1007.3 |
| 20260505222901 | 59 | 149 | 9.6 | 19.1 | 0.00 | 0.00 | 0.00 | 98 | 1007.3 |
| 20260505222359 | 59 | 159 | 9.6 | 20.0 | 0.00 | 0.00 | 0.00 | 97 | 1007.5 |
| 20260505221858 | 59 | 151 | 10.4 | 20.0 | 0.00 | 0.00 | 0.00 | 96 | 1007.6 |
| 20260505221358 | 59 | 153 | 10.4 | 19.1 | 0.00 | 0.00 | 0.00 | 96 | 1007.6 |
| 20260505220855 | 59 | 152 | 9.6 | 20.0 | 0.00 | 0.00 | 0.00 | 95 | 1007.6 |
| 20260505215853 | 60 | 159 | 12.2 | 20.0 | 0.00 | 0.00 | 0.00 | 95 | 1007.3 |
| 20260505214851 | 60 | 156 | 9.6 | 19.1 | 0.00 | 0.00 | 0.00 | 94 | 1007.5 |
| 20260505213849 | 60 | 159 | 8.7 | 18.2 | 0.00 | 0.00 | 0.00 | 94 | 1007.5 |
| 20260505213348 | 60 | 153 | 8.7 | 18.2 | 0.00 | 0.00 | 0.00 | 92 | 1007.7 |
| 20260505212847 | 60 | 157 | 7.8 | 19.1 | 0.00 | 0.00 | 0.00 | 93 | 1007.7 |
| 20260505212346 | 61 | 156 | 9.6 | 19.1 | 0.00 | 0.00 | 0.00 | 92 | 1007.6 |
| 20260505211845 | 61 | 150 | 9.6 | 16.5 | 0.00 | 0.00 | 0.00 | 92 | 1007.6 |
| 20260505211344 | 61 | 163 | 9.6 | 16.5 | 0.00 | 0.00 | 0.00 | 92 | 1007.6 |
| 20260505210843 | 61 | 171 | 10.4 | 17.4 | 0.00 | 0.00 | 0.00 | 91 | 1007.8 |
| 20260505210342 | 61 | 168 | 7.0 | 18.2 | 0.00 | 0.00 | 0.00 | 92 | 1007.7 |
| 20260505205841 | 61 | 153 | 8.7 | 19.1 | 0.00 | 0.00 | 0.00 | 90 | 1007.7 |
| 20260505205340 | 62 | 155 | 11.3 | 20.9 | 0.00 | 0.00 | 0.00 | 89 | 1007.6 |
| 20260505204838 | 62 | 152 | 11.3 | 19.1 | 0.00 | 0.00 | 0.00 | 89 | 1007.6 |
| 20260505203333 | 62 | 152 | 8.7 | 19.1 | 0.00 | 0.00 | 0.00 | 88 | 1007.6 |
| 20260505202832 | 62 | 151 | 9.6 | 20.9 | 0.00 | 0.00 | 0.00 | 87 | 1007.6 |
| 20260505202331 | 62 | 149 | 8.7 | 20.9 | 0.00 | 0.00 | 0.00 | 88 | 1007.7 |
| 20260505201830 | 62 | 149 | 7.8 | 19.1 | 0.00 | 0.00 | 0.00 | 87 | 1007.6 |
| 20260505201329 | 62 | 154 | 9.6 | 19.1 | 0.00 | 0.00 | 0.00 | 87 | 1007.7 |
| 20260505200327 | 62 | 140 | 8.7 | 19.1 | 0.00 | 0.00 | 0.00 | 86 | 1007.7 |
| 20260505195553 | 62 | 146 | 6.1 | 15.6 | 0.00 | 0.00 | 0.00 | 86 | 1007.7 |
| 20260505195034 | 63 | 139 | 7.0 | 19.1 | 0.00 | 0.00 | 0.00 | 85 | 1007.8 |
| 20260505194515 | 63 | 151 | 7.8 | 19.1 | 0.00 | 0.00 | 0.00 | 84 | 1007.8 |
| 20260505193956 | 63 | 156 | 5.2 | 20.9 | 0.00 | 0.00 | 0.00 | 84 | 1007.8 |
| 20260505193610 | 63 | 152 | 9.6 | 20.9 | 0.00 | 0.00 | 0.00 | 83 | 1007.7 |
| 20260505192918 | 63 | 143 | 7.8 | 17.4 | 0.00 | 0.00 | 0.00 | 82 | 1007.8 |
| 20260505192358 | 63 | 157 | 6.1 | 17.4 | 0.00 | 0.00 | 0.00 | 82 | 1007.9 |
| 20260505191839 | 63 | 162 | 7.8 | 14.8 | 0.00 | 0.00 | 0.00 | 80 | 1007.9 |
| 20260505191353 | 63 | 172 | 4.3 | 14.8 | 0.00 | 0.00 | 0.00 | 80 | 1008.1 |
| 20260505190801 | 63 | 164 | 4.3 | 12.2 | 0.00 | 0.00 | 0.00 | 79 | 1007.9 |
| 20260505190242 | 63 | 159 | 5.2 | 12.2 | 0.00 | 0.00 | 0.00 | 78 | 1008.1 |
| 20260505185723 | 63 | 163 | 2.6 | 10.4 | 0.00 | 0.00 | 0.00 | 77 | 1008.1 |
| 20260505185211 | 63 | 174 | 2.6 | 7.0 | 0.00 | 0.00 | 0.00 | 76 | 1008.0 |
| 20260505184645 | 63 | 191 | 2.6 | 10.4 | 0.00 | 0.00 | 0.00 | 74 | 1007.9 |
| 20260505184126 | 64 | 184 | 4.3 | 11.3 | 0.00 | 0.00 | 0.00 | 73 | 1007.9 |
| 20260505183607 | 64 | 163 | 5.2 | 16.5 | 0.00 | 0.00 | 0.00 | 71 | 1007.8 |
| 20260505183047 | 64 | 163 | 8.7 | 16.5 | 0.00 | 0.00 | 0.00 | 69 | 1007.7 |
| 20260505181450 | 65 | 144 | 6.1 | 13.0 | 0.00 | 0.00 | 0.00 | 66 | 1007.7 |
| 20260505180935 | 65 | 162 | 6.1 | 16.5 | 0.00 | 0.00 | 0.00 | 63 | 1007.6 |
| 20260505180514 | 65 | 151 | 10.4 | 16.5 | 0.00 | 0.00 | 0.00 | 60 | 1007.8 |
| 20260505175853 | 65 | 174 | 6.1 | 12.2 | 0.00 | 0.00 | 0.00 | 59 | 1007.7 |
| 20260505175334 | 66 | 174 | 4.3 | 13.0 | 0.00 | 0.00 | 0.00 | 56 | 1007.7 |
| 20260505174815 | 66 | 155 | 5.2 | 11.3 | 0.00 | 0.00 | 0.00 | 55 | 1007.7 |
| 20260505174256 | 66 | 154 | 6.1 | 13.0 | 0.00 | 0.00 | 0.00 | 54 | 1007.7 |
| 20260505173737 | 67 | 171 | 4.3 | 13.9 | 0.00 | 0.00 | 0.00 | 54 | 1007.6 |
| 20260505173218 | 67 | 157 | 5.2 | 13.9 | 0.00 | 0.00 | 0.00 | 54 | 1007.7 |
| 20260505171200 | 69 | 157 | 9.6 | 21.7 | 0.00 | 0.00 | 0.00 | 50 | 1007.3 |
| 20260505170658 | 69 | 152 | 10.4 | 26.9 | 0.00 | 0.00 | 0.00 | 50 | 1007.2 |
| 20260505170158 | 69 | 152 | 11.3 | 26.9 | 0.00 | 0.00 | 0.00 | 51 | 1007.3 |
| 20260505165152 | 69 | 157 | 10.4 | 25.2 | 0.00 | 0.00 | 0.00 | 53 | 1007.4 |
| 20260505164651 | 69 | 162 | 7.8 | 26.9 | 0.00 | 0.00 | 0.00 | 54 | 1007.6 |
| 20260505164150 | 70 | 162 | 7.8 | 26.9 | 0.00 | 0.00 | 0.00 | 53 | 1007.6 |
| 20260505163649 | 70 | 169 | 12.2 | 26.1 | 0.00 | 0.00 | 0.00 | 52 | 1007.6 |
| 20260505163148 | 70 | 164 | 14.8 | 26.1 | 0.00 | 0.00 | 0.00 | 51 | 1007.3 |
| 20260505162646 | 70 | 159 | 11.3 | 21.7 | 0.00 | 0.00 | 0.00 | 51 | 1007.8 |
| 20260505162145 | 70 | 160 | 13.0 | 22.6 | 0.00 | 0.00 | 0.00 | 51 | 1007.5 |
| 20260505161643 | 71 | 162 | 13.9 | 22.6 | 0.00 | 0.00 | 0.00 | 49 | 1007.7 |
| 20260505161140 | 72 | 158 | 7.8 | 20.9 | 0.00 | 0.00 | 0.00 | 48 | 1007.7 |
| 20260505160638 | 72 | 161 | 13.0 | 26.9 | 0.00 | 0.00 | 0.00 | 49 | 1007.8 |
| 20260505160133 | 72 | 164 | 13.9 | 27.8 | 0.00 | 0.00 | 0.00 | 48 | 1007.8 |
| 20260505153123 | 74 | 162 | 14.8 | 31.3 | 0.00 | 0.00 | 0.00 | 46 | 1007.7 |
| 20260505152621 | 74 | 158 | 15.6 | 31.3 | 0.00 | 0.00 | 0.00 | 45 | 1007.4 |
| 20260505152120 | 75 | 163 | 12.2 | 26.1 | 0.00 | 0.00 | 0.00 | 46 | 1007.6 |
| 20260505151617 | 76 | 167 | 12.2 | 21.7 | 0.00 | 0.00 | 0.00 | 45 | 1007.6 |
| 20260505151116 | 76 | 164 | 9.6 | 20.0 | 0.00 | 0.00 | 0.00 | 44 | 1007.6 |
| 20260505150615 | 76 | 162 | 11.3 | 19.1 | 0.00 | 0.00 | 0.00 | 43 | 1007.7 |
| 20260505125040 | 77 | 164 | 7.0 | 18.2 | 0.00 | 0.00 | 0.00 | 43 | 1008.9 |
| 20260505124539 | 77 | 174 | 7.0 | 18.2 | 0.00 | 0.00 | 0.00 | 43 | 1009.0 |
| 20260505124038 | 78 | 149 | 6.1 | 20.9 | 0.00 | 0.00 | 0.00 | 43 | 1009.0 |
| 20260505123036 | 76 | 168 | 12.2 | 21.7 | 0.00 | 0.00 | 0.00 | 44 | 1009.0 |
| 20260505122533 | 76 | 146 | 7.8 | 21.7 | 0.00 | 0.00 | 0.00 | 43 | 1009.1 |
| 20260505121530 | 73 | 145 | 9.6 | 23.5 | 0.00 | 0.00 | 0.00 | 44 | 1009.1 |
| 20260505121028 | 73 | 136 | 11.3 | 20.0 | 0.00 | 0.00 | 0.00 | 44 | 1009.2 |
| 20260505120527 | 73 | 147 | 9.6 | 20.9 | 0.00 | 0.00 | 0.00 | 44 | 1009.2 |
| 20260505115525 | 73 | 146 | 10.4 | 22.6 | 0.00 | 0.00 | 0.00 | 42 | 1009.3 |
| 20260505115024 | 74 | 134 | 9.6 | 21.7 | 0.00 | 0.00 | 0.00 | 40 | 1009.2 |
| 20260505114021 | 74 | 145 | 10.4 | 20.0 | 0.00 | 0.00 | 0.00 | 39 | 1009.2 |
| 20260505113520 | 74 | 137 | 10.4 | 19.1 | 0.00 | 0.00 | 0.00 | 40 | 1009.4 |
| 20260505113018 | 74 | 131 | 8.7 | 19.1 | 0.00 | 0.00 | 0.00 | 40 | 1009.2 |
| 20260505112517 | 74 | 158 | 7.0 | 19.1 | 0.00 | 0.00 | 0.00 | 40 | 1009.2 |
| 20260505112016 | 75 | 153 | 7.8 | 20.0 | 0.00 | 0.00 | 0.00 | 41 | 1009.4 |
| 20260505111514 | 74 | 125 | 11.3 | 20.0 | 0.00 | 0.00 | 0.00 | 41 | 1009.6 |
| 20260505111012 | 74 | 149 | 8.7 | 18.2 | 0.00 | 0.00 | 0.00 | 44 | 1009.4 |
| 20260505110512 | 74 | 151 | 9.6 | 25.2 | 0.00 | 0.00 | 0.00 | 45 | 1009.6 |
| 20260505101958 | 73 | 137 | 11.3 | 26.1 | 0.00 | 0.00 | 0.00 | 47 | 1009.7 |
| 20260505101456 | 72 | 165 | 13.9 | 26.1 | 0.00 | 0.00 | 0.00 | 49 | 1009.8 |
| 20260505100453 | 72 | 146 | 10.4 | 18.2 | 0.00 | 0.00 | 0.00 | 53 | 1009.9 |
| 20260505095953 | 71 | 146 | 8.7 | 18.2 | 0.00 | 0.00 | 0.00 | 53 | 1009.9 |
| 20260505095449 | 72 | 150 | 7.8 | 18.2 | 0.00 | 0.00 | 0.00 | 53 | 1009.9 |
| 20260505094948 | 71 | 141 | 10.4 | 26.9 | 0.00 | 0.00 | 0.00 | 53 | 1010.0 |
| 20260505094446 | 70 | 132 | 12.2 | 26.9 | 0.00 | 0.00 | 0.00 | 55 | 1010.1 |
| 20260505093444 | 70 | 137 | 10.4 | 22.6 | 0.00 | 0.00 | 0.00 | 56 | 1009.8 |
| 20260505092943 | 69 | 147 | 10.4 | 20.0 | 0.00 | 0.00 | 0.00 | 57 | 1010.3 |
| 20260505092442 | 68 | 137 | 9.6 | 22.6 | 0.00 | 0.00 | 0.00 | 60 | 1010.3 |
| 20260505091941 | 67 | 134 | 10.4 | 24.3 | 0.00 | 0.00 | 0.00 | 61 | 1010.2 |
| 20260505091439 | 67 | 133 | 12.2 | 24.3 | 0.00 | 0.00 | 0.00 | 61 | 1010.2 |
| 20260505090937 | 68 | 146 | 10.4 | 19.1 | 0.00 | 0.00 | 0.00 | 59 | 1010.3 |
| 20260505090436 | 68 | 139 | 8.7 | 19.1 | 0.00 | 0.00 | 0.00 | 59 | 1010.3 |
| 20260505085936 | 67 | 141 | 7.0 | 19.1 | 0.00 | 0.00 | 0.00 | 60 | 1010.5 |
| 20260505084433 | 66 | 136 | 4.3 | 13.9 | 0.00 | 0.00 | 0.00 | 64 | 1010.9 |
| 20260505083931 | 66 | 126 | 6.1 | 18.2 | 0.00 | 0.00 | 0.00 | 63 | 1010.9 |
| 20260505082929 | 67 | 147 | 6.1 | 20.9 | 0.00 | 0.00 | 0.00 | 62 | 1011.0 |
| 20260505082427 | 68 | 157 | 6.1 | 20.9 | 0.00 | 0.00 | 0.00 | 60 | 1011.2 |
| 20260505081926 | 67 | 125 | 9.6 | 18.2 | 0.00 | 0.00 | 0.00 | 62 | 1010.9 |
| 20260505081425 | 66 | 131 | 7.8 | 17.4 | 0.00 | 0.00 | 0.00 | 64 | 1011.0 |
| 20260505080924 | 66 | 137 | 8.7 | 17.4 | 0.00 | 0.00 | 0.00 | 64 | 1010.9 |
| 20260505080422 | 66 | 117 | 7.0 | 16.5 | 0.00 | 0.00 | 0.00 | 64 | 1010.9 |
| 20260505075420 | 64 | 134 | 10.4 | 19.1 | 0.00 | 0.00 | 0.00 | 66 | 1010.8 |
| 20260505074919 | 64 | 130 | 10.4 | 20.0 | 0.00 | 0.00 | 0.00 | 69 | 1011.0 |
| 20260505074418 | 63 | 129 | 8.7 | 20.0 | 0.00 | 0.00 | 0.00 | 68 | 1010.9 |
| 20260505073916 | 64 | 128 | 8.7 | 18.2 | 0.00 | 0.00 | 0.00 | 68 | 1011.0 |
| 20260505073415 | 63 | 128 | 9.6 | 19.1 | 0.00 | 0.00 | 0.00 | 68 | 1011.0 |
| 20260505072914 | 64 | 143 | 8.7 | 19.1 | 0.00 | 0.00 | 0.00 | 68 | 1011.1 |
| 20260505072413 | 63 | 142 | 8.7 | 15.6 | 0.00 | 0.00 | 0.00 | 69 | 1011.2 |
| 20260505071911 | 63 | 144 | 7.0 | 19.1 | 0.00 | 0.00 | 0.00 | 69 | 1011.2 |
| 20260505070408 | 60 | 147 | 11.3 | 19.1 | 0.00 | 0.00 | 0.00 | 74 | 1011.3 |
| 20260505065907 | 61 | 139 | 7.8 | 19.1 | 0.00 | 0.00 | 0.00 | 73 | 1011.3 |
| 20260505065406 | 61 | 135 | 8.7 | 18.2 | 0.00 | 0.00 | 0.00 | 74 | 1011.2 |
| 20260505064906 | 61 | 142 | 7.0 | 18.2 | 0.00 | 0.00 | 0.00 | 74 | 1011.3 |
| 20260505064404 | 60 | 148 | 8.7 | 20.0 | 0.00 | 0.00 | 0.00 | 74 | 1011.2 |
| 20260505063902 | 60 | 156 | 7.8 | 25.2 | 0.00 | 0.00 | 0.00 | 74 | 1011.2 |
| 20260505062900 | 60 | 152 | 7.8 | 22.6 | 0.00 | 0.00 | 0.00 | 73 | 1011.1 |
| 20260505062359 | 60 | 151 | 9.6 | 20.9 | 0.00 | 0.00 | 0.00 | 75 | 1011.0 |
| 20260505061356 | 59 | 149 | 9.6 | 20.0 | 0.00 | 0.00 | 0.00 | 75 | 1010.9 |
| 20260505060855 | 59 | 143 | 8.7 | 21.7 | 0.00 | 0.00 | 0.00 | 75 | 1010.8 |
| 20260505060354 | 59 | 135 | 8.7 | 21.7 | 0.00 | 0.00 | 0.00 | 76 | 1010.8 |
| 20260505055853 | 58 | 142 | 12.2 | 21.7 | 0.00 | 0.00 | 0.00 | 76 | 1010.9 |
| 20260505055352 | 58 | 150 | 10.4 | 21.7 | 0.00 | 0.00 | 0.00 | 77 | 1010.8 |
| 20260505054851 | 58 | 147 | 7.8 | 19.1 | 0.00 | 0.00 | 0.00 | 77 | 1010.9 |
| 20260505054350 | 58 | 149 | 9.6 | 21.7 | 0.00 | 0.00 | 0.00 | 77 | 1010.9 |
| 20260505053849 | 58 | 139 | 11.3 | 21.7 | 0.00 | 0.00 | 0.00 | 76 | 1010.9 |
| 20260505052848 | 58 | 141 | 9.6 | 20.0 | 0.00 | 0.00 | 0.00 | 75 | 1011.1 |
| 20260505052346 | 58 | 139 | 9.6 | 21.7 | 0.00 | 0.00 | 0.00 | 74 | 1011.0 |
| 20260505051844 | 58 | 136 | 10.4 | 23.5 | 0.00 | 0.00 | 0.00 | 74 | 1011.0 |
| 20260505051342 | 58 | 158 | 10.4 | 23.5 | 0.00 | 0.00 | 0.00 | 74 | 1011.0 |
| 20260505050339 | 58 | 154 | 8.7 | 19.1 | 0.00 | 0.00 | 0.00 | 72 | 1010.8 |
| 20260505041327 | 58 | 143 | 9.6 | 20.0 | 0.00 | 0.00 | 0.00 | 70 | 1010.9 |
| 20260505040825 | 58 | 142 | 9.6 | 20.0 | 0.00 | 0.00 | 0.00 | 69 | 1010.8 |
| 20260505035823 | 58 | 146 | 9.6 | 21.7 | 0.00 | 0.00 | 0.00 | 68 | 1010.9 |
| 20260505034820 | 57 | 146 | 8.7 | 16.5 | 0.00 | 0.00 | 0.00 | 68 | 1011.0 |
| 20260505033816 | 58 | 152 | 8.7 | 19.1 | 0.00 | 0.00 | 0.00 | 66 | 1010.7 |
| 20260505033312 | 58 | 148 | 7.0 | 18.2 | 0.00 | 0.00 | 0.00 | 65 | 1011.0 |
| 20260505032809 | 58 | 149 | 9.6 | 20.0 | 0.00 | 0.00 | 0.00 | 62 | 1011.0 |
| 20260505032308 | 58 | 143 | 7.8 | 20.0 | 0.00 | 0.00 | 0.00 | 61 | 1011.0 |
| 20260505031807 | 58 | 150 | 8.7 | 20.9 | 0.00 | 0.00 | 0.00 | 61 | 1011.0 |
| 20260505030804 | 58 | 144 | 9.6 | 22.6 | 0.00 | 0.00 | 0.00 | 59 | 1010.9 |
| 20260505030302 | 58 | 138 | 8.7 | 22.6 | 0.00 | 0.00 | 0.00 | 58 | 1010.8 |
| 20260505025801 | 59 | 138 | 12.2 | 20.9 | 0.00 | 0.00 | 0.00 | 57 | 1010.9 |
| 20260505025300 | 59 | 137 | 10.4 | 19.1 | 0.00 | 0.00 | 0.00 | 57 | 1010.8 |
| 20260505024759 | 59 | 151 | 10.4 | 19.1 | 0.00 | 0.00 | 0.00 | 56 | 1011.0 |
| 20260505024258 | 59 | 147 | 7.8 | 19.1 | 0.00 | 0.00 | 0.00 | 55 | 1010.9 |
| 20260505023756 | 59 | 142 | 10.4 | 19.1 | 0.00 | 0.00 | 0.00 | 54 | 1010.9 |
| 20260505023255 | 59 | 143 | 7.8 | 18.2 | 0.00 | 0.00 | 0.00 | 53 | 1010.9 |
| 20260505022754 | 59 | 149 | 7.8 | 20.9 | 0.00 | 0.00 | 0.00 | 52 | 1011.0 |
| 20260505022252 | 59 | 147 | 8.7 | 20.9 | 0.00 | 0.00 | 0.00 | 52 | 1011.0 |
| 20260505021751 | 59 | 138 | 9.6 | 19.1 | 0.00 | 0.00 | 0.00 | 51 | 1011.0 |
| 20260505021250 | 59 | 138 | 8.7 | 19.1 | 0.00 | 0.00 | 0.00 | 51 | 1011.2 |
| 20260505020749 | 60 | 138 | 9.6 | 22.6 | 0.00 | 0.00 | 0.00 | 51 | 1011.1 |
| 20260505020247 | 60 | 144 | 10.4 | 22.6 | 0.00 | 0.00 | 0.00 | 50 | 1011.1 |
| 20260505015746 | 60 | 133 | 13.0 | 20.9 | 0.00 | 0.00 | 0.00 | 49 | 1011.2 |
| 20260505015245 | 60 | 140 | 9.6 | 18.2 | 0.00 | 0.00 | 0.00 | 49 | 1011.3 |
| 20260505014744 | 59 | 148 | 7.8 | 18.2 | 0.00 | 0.00 | 0.00 | 49 | 1011.5 |
| 20260505014243 | 60 | 146 | 7.0 | 18.2 | 0.00 | 0.00 | 0.00 | 49 | 1011.5 |
| 20260505013742 | 60 | 148 | 7.8 | 18.2 | 0.00 | 0.00 | 0.00 | 48 | 1011.6 |
| 20260505013241 | 60 | 141 | 8.7 | 20.9 | 0.00 | 0.00 | 0.00 | 48 | 1011.5 |
| 20260505012739 | 60 | 148 | 10.4 | 20.9 | 0.00 | 0.00 | 0.00 | 48 | 1011.6 |
| 20260505012238 | 60 | 152 | 9.6 | 21.7 | 0.00 | 0.00 | 0.00 | 48 | 1011.8 |
| 20260505011737 | 60 | 147 | 11.3 | 21.7 | 0.00 | 0.00 | 0.00 | 48 | 1011.7 |
| 20260505010733 | 60 | 153 | 9.6 | 20.0 | 0.00 | 0.00 | 0.00 | 47 | 1011.7 |
| 20260505010232 | 60 | 149 | 9.6 | 20.0 | 0.00 | 0.00 | 0.00 | 47 | 1011.6 |
| 20260505005731 | 61 | 146 | 7.8 | 23.5 | 0.00 | 0.00 | 0.00 | 47 | 1011.7 |
| 20260505005229 | 61 | 142 | 8.7 | 23.5 | 0.00 | 0.00 | 0.00 | 47 | 1011.5 |
| 20260505004727 | 61 | 145 | 10.4 | 23.5 | 0.00 | 0.00 | 0.00 | 46 | 1011.5 |
| 20260505003725 | 61 | 147 | 11.3 | 23.5 | 0.00 | 0.00 | 0.00 | 46 | 1011.7 |
| 20260505002222 | 61 | 146 | 10.4 | 20.0 | 0.00 | 0.00 | 0.00 | 47 | 1012.1 |
| 20260505001721 | 61 | 148 | 10.4 | 20.0 | 0.00 | 0.00 | 0.00 | 46 | 1012.2 |
| 20260505001219 | 61 | 145 | 11.3 | 19.1 | 0.00 | 0.00 | 0.00 | 47 | 1012.2 |
| 20260505000718 | 61 | 154 | 11.3 | 19.1 | 0.00 | 0.00 | 0.00 | 47 | 1012.2 |
| 20260505000218 | 61 | 154 | 8.7 | 17.4 | 0.00 | 0.00 | 0.00 | 47 | 1012.5 |
| 20260504235715 | 61 | 155 | 9.6 | 20.9 | 0.00 | 0.00 | 0.00 | 47 | 1012.6 |
| 20260504235214 | 61 | 158 | 10.4 | 20.9 | 0.00 | 0.00 | 0.00 | 47 | 1012.7 |
| 20260504234713 | 62 | 157 | 10.4 | 16.5 | 0.00 | 0.00 | 0.00 | 46 | 1012.8 |
| 20260504234212 | 62 | 174 | 7.0 | 17.4 | 0.00 | 0.00 | 0.00 | 46 | 1012.9 |
| 20260504232708 | 62 | 156 | 7.8 | 18.2 | 0.00 | 0.00 | 0.00 | 46 | 1012.6 |
| 20260504232206 | 62 | 167 | 8.7 | 16.5 | 0.00 | 0.00 | 0.00 | 47 | 1012.6 |
| 20260504231705 | 63 | 166 | 6.1 | 16.5 | 0.00 | 0.00 | 0.00 | 47 | 1012.7 |
| 20260504231204 | 63 | 161 | 7.8 | 14.8 | 0.00 | 0.00 | 0.00 | 47 | 1012.8 |
| 20260504230659 | 63 | 162 | 7.0 | 15.6 | 0.00 | 0.00 | 0.00 | 48 | 1012.9 |
| 20260504225657 | 63 | 157 | 7.8 | 16.5 | 0.00 | 0.00 | 0.00 | 48 | 1013.0 |
| 20260504225155 | 63 | 159 | 7.0 | 16.5 | 0.00 | 0.00 | 0.00 | 48 | 1013.3 |
| 20260504224653 | 63 | 151 | 7.8 | 14.8 | 0.00 | 0.00 | 0.00 | 48 | 1013.2 |
| 20260504224152 | 63 | 154 | 7.8 | 16.5 | 0.00 | 0.00 | 0.00 | 48 | 1013.3 |